User: anonymous   Login
Location: Unspecified
(0.0000°N, 0.0000°E)
Time: 10:43:09
(UTC+02:00)
Language:

DELTA 2 R/B (1) - Orbit

View from above orbital plane
View from above orbital plane
View from above satellite
View from above satellite

Ground track
Ground track

The orbit data is extracted from the following two-line orbital elements,

1 27665U 03005C   14297.69719176  .00000063  00000-0  59019-4 0  1497
2 27665 039.5765 350.9091 0008343 109.8603 038.0587 14.28236223612705
Epoch (UTC): 24 October 2014 16:43:57
Eccentricity: 0.0008343
inclination: 39.5765°
perigee height: 791 km
apogee height: 803 km
right ascension of ascending node: 350.9091°
argument of perigee: 109.8603°
revolutions per day: 14.28236223
mean anomaly at epoch: 38.0587°
orbit number at epoch: 61270

The dashed part of the orbit path shows where the satellite is in the earth's shadow,  

DLR